GW3793 Weather Reports


Display with metric or nautical units.
time (UTC)temp
F
wind
direction
speed
MPH
gust
MPH
rain 1hr
in
rain 24hr
in
rain mn
in
humidity
%
barometer
mb
20260901091803 58 169 3.0 7.0 0.00 0.00 0.00 73 1009.8
20260901091117 58 168 3.0 6.0 0.00 0.00 0.00 74 1010.1
20260901090003 58 162 3.0 5.0 0.00 0.00 0.00 73 1009.8
20260901085618 58 158 3.0 6.0 0.00 0.00 0.00 73 1009.9
20260901084503 58 153 2.0 6.0 0.00 0.00 0.00 74 1010.2
20260901083603 58 159 2.0 4.0 0.00 0.00 0.00 75 1010.1
20260901082704 58 152 2.0 5.0 0.00 0.00 0.00 75 1010.3
20260901081803 58 158 2.0 5.0 0.00 0.00 0.00 75 1010.3
20260901080903 58 141 2.0 4.0 0.00 0.00 0.00 75 1010.3
20260901080004 57 131 2.0 7.0 0.00 0.00 0.00 75 1010.4
20260901075403 57 115 3.0 6.0 0.00 0.00 0.00 76 1010.4
20260901074503 57 119 3.0 8.0 0.00 0.00 0.00 76 1010.6
20260901073603 57 132 2.0 6.0 0.00 0.00 0.00 75 1010.6
20260901072703 57 136 2.0 6.0 0.00 0.00 0.00 75 1010.2
20260901071804 57 144 2.0 5.0 0.00 0.00 0.00 76 1010.4
20260901070903 57 154 2.0 5.0 0.00 0.00 0.00 75 1010.6
20260901070004 57 154 2.0 6.0 0.00 0.00 0.00 76 1010.6
20260901065403 57 146 2.0 5.0 0.00 0.00 0.00 76 1010.7
20260901064503 57 128 3.0 6.0 0.00 0.00 0.00 76 1010.8
20260901063604 57 119 3.0 7.0 0.00 0.00 0.00 77 1010.7
20260901062704 57 116 3.0 8.0 0.00 0.00 0.00 78 1010.8
20260901062017 56 118 3.0 7.0 0.00 0.00 0.00 78 1011.0
20260901060903 56 136 2.0 4.0 0.00 0.00 0.00 77 1011.3
20260901060003 56 125 2.0 5.0 0.00 0.00 0.00 76 1010.7
20260901055403 56 138 2.0 6.0 0.00 0.00 0.00 76 1011.2
20260901054720 57 135 2.0 6.0 0.00 0.00 0.00 76 1011.0
20260901053603 57 118 3.0 6.0 0.00 0.00 0.00 76 1011.2
20260901052703 57 124 2.0 5.0 0.00 0.00 0.00 76 1011.1
20260901051804 57 128 2.0 6.0 0.00 0.00 0.00 76 1011.2
20260901050904 57 131 2.0 5.0 0.00 0.00 0.00 76 1011.3
20260901050003 56 117 3.0 13.0 0.00 0.00 0.00 76 1011.4
20260901045403 56 116 2.0 13.0 0.00 0.00 0.00 77 1011.4
20260901044718 56 130 1.0 4.0 0.00 0.00 0.00 76 1011.3
20260901043603 57 158 1.0 4.0 0.00 0.00 0.00 74 1011.5
20260901042703 58 163 2.0 6.0 0.00 0.00 0.00 74 1011.7
20260901041803 58 166 3.0 8.0 0.00 0.00 0.00 74 1011.6
20260901040903 58 162 2.0 7.0 0.00 0.00 0.00 74 1011.6
20260901040003 58 149 2.0 5.0 0.00 0.00 0.00 73 1011.6
20260901035403 58 156 2.0 5.0 0.00 0.00 0.00 73 1011.7
20260901034503 59 162 2.0 7.0 0.00 0.00 0.00 71 1011.9
20260901033605 60 163 3.0 9.0 0.00 0.00 0.00 71 1011.6
20260901032703 60 167 3.0 7.0 0.00 0.00 0.00 70 1011.5
20260901031804 60 171 4.0 10.0 0.00 0.00 0.00 69 1011.6
20260901030903 60 165 4.0 10.0 0.00 0.00 0.00 69 1011.4
20260901030003 61 165 4.0 11.0 0.00 0.00 0.00 68 1011.5
20260901025618 61 167 4.0 11.0 0.00 0.00 0.00 68 1011.3
20260901024503 61 161 4.0 10.0 0.00 0.00 0.00 68 1011.6
20260901023818 62 163 4.0 10.0 0.00 0.00 0.00 67 1011.3
20260901022703 62 169 4.0 12.0 0.00 0.00 0.00 67 1011.5
20260901021803 62 166 3.0 9.0 0.00 0.00 0.00 68 1011.7
20260901020903 62 165 3.0 7.0 0.00 0.00 0.00 67 1011.6
20260901020006 62 163 3.0 8.0 0.00 0.00 0.00 67 1011.7
20260901015404 63 165 3.0 7.0 0.00 0.00 0.00 66 1011.6
20260901014503 63 153 3.0 10.0 0.00 0.00 0.00 66 1011.6
20260901013603 63 157 3.0 6.0 0.00 0.00 0.00 65 1012.1
20260901012703 64 156 3.0 6.0 0.00 0.00 0.00 64 1012.1
20260901011803 64 160 3.0 11.0 0.00 0.00 0.00 63 1012.2
20260901011118 64 168 3.0 11.0 0.00 0.00 0.00 63 1012.1
20260901010003 64 162 3.0 7.0 0.00 0.00 0.00 62 1012.1
20260901005403 64 170 2.0 8.0 0.00 0.00 0.00 63 1012.1
20260901004716 65 156 3.0 9.0 0.00 0.00 0.00 62 1012.0
20260901003818 65 155 2.0 9.0 0.00 0.00 0.00 62 1012.3
20260901002704 65 133 2.0 8.0 0.00 0.00 0.00 62 1012.3
20260901001803 65 158 2.0 5.0 0.00 0.00 0.00 61 1012.4
20260901001118 65 139 1.0 5.0 0.00 0.00 0.00 61 1012.4
20260901000003 65 108 2.0 5.0 0.00 0.00 0.00 60 1012.5
20260831235403 66 107 2.0 9.0 0.00 0.00 0.00 60 1012.4
20260831234718 66 138 2.0 9.0 0.00 0.00 0.00 58 1012.5
20260831233817 66 173 3.0 8.0 0.00 0.00 0.00 59 1012.6
20260831232703 67 171 2.0 8.0 0.00 0.00 0.00 55 1012.8
20260831231804 67 162 3.0 5.0 0.00 0.00 0.00 51 1012.5
20260831231117 67 168 4.0 8.0 0.00 0.00 0.00 54 1013.0
20260831230003 67 165 4.0 7.0 0.00 0.00 0.00 53 1013.0
20260831225403 67 171 4.0 8.0 0.00 0.00 0.00 51 1012.8
20260831224503 67 175 3.0 9.0 0.00 0.00 0.00 54 1012.9
20260831223603 67 175 4.0 8.0 0.00 0.00 0.00 53 1012.9
20260831222918 68 167 4.0 9.0 0.00 0.00 0.00 52 1013.4
20260831221803 68 177 3.0 7.0 0.00 0.00 0.00 52 1013.1
20260831220905 68 170 4.0 9.0 0.00 0.00 0.00 51 1013.4
20260831220219 68 171 4.0 9.0 0.00 0.00 0.00 50 1013.4
20260831215404 68 187 4.0 11.0 0.00 0.00 0.00 54 1013.3
20260831214504 67 177 3.0 8.0 0.00 0.00 0.00 55 1013.3
20260831213606 66 179 2.0 6.0 0.00 0.00 0.00 56 1013.4
20260831212704 67 188 3.0 7.0 0.00 0.00 0.00 58 1013.4
20260831211803 66 168 4.0 9.0 0.00 0.00 0.00 61 1013.7
20260831210904 65 137 3.0 11.0 0.00 0.00 0.00 61 1013.4
20260831210005 65 135 3.0 10.0 0.00 0.00 0.00 61 1013.5
20260831205403 64 123 3.0 10.0 0.00 0.00 0.00 62 1013.8
20260831204503 64 117 3.0 13.0 0.00 0.00 0.00 62 1013.8
20260831203603 64 120 4.0 12.0 0.00 0.00 0.00 62 1014.1
20260831202703 65 148 4.0 11.0 0.00 0.00 0.00 61 1013.9
20260831201803 65 160 4.0 10.0 0.00 0.00 0.00 61 1014.3
20260831200903 65 154 4.0 10.0 0.00 0.00 0.00 62 1014.3
20260831200003 65 165 4.0 11.0 0.00 0.01 0.00 62 1014.2
20260831195619 64 168 4.0 9.0 0.00 0.01 0.00 62 1014.2
20260831194503 63 168 5.0 13.0 0.00 0.01 0.00 66 1014.4
20260831193603 63 170 5.0 11.0 0.00 0.02 0.00 66 1014.6
20260831192703 63 158 4.0 10.0 0.00 0.02 0.00 65 1014.8
20260831191803 63 154 4.0 13.0 0.00 0.02 0.00 64 1014.8
20260831190903 63 170 5.0 13.0 0.00 0.02 0.00 66 1014.9
20260831190003 61 153 4.0 13.0 0.00 0.02 0.00 69 1015.0
20260831185403 61 149 4.0 13.0 0.00 0.02 0.00 69 1015.1
20260831184503 60 147 4.0 17.0 0.00 0.03 0.00 70 1015.2
20260831183820 59 152 4.0 13.0 0.00 0.03 0.00 71 1015.3
20260831182917 59 158 4.0 12.0 0.00 0.04 0.00 71 1015.2
20260831181803 59 163 4.0 11.0 0.00 0.04 0.00 72 1015.5
20260831180903 59 167 5.0 11.0 0.00 0.05 0.00 72 1015.6
20260831180003 58 166 4.0 12.0 0.00 0.06 0.00 74 1015.5
20260831175403 57 170 5.0 14.0 0.00 0.07 0.00 78 1015.5
20260831174503 57 171 3.0 8.0 0.00 0.08 0.00 79 1015.6
20260831173603 57 175 4.0 11.0 0.00 0.09 0.00 79 1015.6
20260831172703 57 171 5.0 13.0 0.00 0.09 0.00 79 1015.6
20260831171803 57 161 5.0 15.0 0.00 0.10 0.00 80 1015.7
20260831170903 56 162 5.0 14.0 0.00 0.11 0.00 79 1015.6
20260831170003 57 164 6.0 13.0 0.00 0.11 0.00 79 1015.5
20260831165403 57 166 6.0 16.0 0.00 0.11 0.00 80 1015.2
20260831164717 56 166 5.0 17.0 0.00 0.12 0.00 81 1015.5
20260831163603 56 167 5.0 15.0 0.00 0.13 0.00 81 1015.3
20260831162703 55 161 5.0 13.0 0.00 0.14 0.00 84 1015.6
20260831161803 55 161 5.0 12.0 0.00 0.15 0.00 85 1015.3
20260831160903 54 168 5.0 14.0 0.00 0.15 0.00 87 1015.8
20260831160003 52 166 4.0 14.0 0.00 0.15 0.00 89 1015.8
20260831155618 52 164 4.0 11.0 0.00 0.16 0.00 89 1015.8
20260831154719 52 167 5.0 13.0 0.00 0.16 0.00 89 1015.9
20260831153818 52 157 4.0 11.0 0.00 0.17 0.00 91 1016.0
20260831152918 51 156 4.0 15.0 0.00 0.17 0.00 91 1016.1
20260831151804 51 162 4.0 10.0 0.00 0.17 0.00 91 1015.8
20260831150903 51 166 5.0 14.0 0.00 0.18 0.00 91 1016.0
20260831150218 51 163 5.0 17.0 0.00 0.18 0.00 92 1015.5
20260831145403 51 168 4.0 11.0 0.00 0.19 0.00 94 1015.9
20260831144504 51 154 3.0 9.0 0.00 0.19 0.00 93 1015.9
20260831143603 50 151 2.0 5.0 0.00 0.19 0.00 95 1015.8
20260831142703 50 139 3.0 6.0 0.00 0.19 0.00 95 1015.7
20260831141803 50 138 2.0 6.0 0.00 0.19 0.00 95 1015.9
20260831140903 50 144 2.0 5.0 0.00 0.19 0.00 95 1015.9
20260831140003 50 112 3.0 8.0 0.00 0.19 0.00 96 1015.7
20260831135403 50 116 3.0 8.0 0.00 0.20 0.00 96 1015.7
20260831134503 50 144 2.0 6.0 0.00 0.20 0.00 96 1015.6
20260831133603 50 125 2.0 5.0 0.00 0.20 0.00 96 1015.5
20260831132703 50 123 2.0 5.0 0.00 0.20 0.00 96 1015.7
20260831131803 50 140 2.0 4.0 0.00 0.20 0.00 96 1015.7
20260831130903 50 150 2.0 6.0 0.00 0.20 0.00 96 1015.8
20260831130003 50 133 2.0 5.0 0.00 0.20 0.00 96 1015.7
20260831125403 50 145 2.0 6.0 0.00 0.20 0.00 96 1015.8
20260831124503 50 136 2.0 6.0 0.00 0.20 0.00 96 1015.7
20260831123603 50 152 2.0 6.0 0.00 0.20 0.00 97 1015.9
20260831122703 50 155 2.0 5.0 0.00 0.20 0.00 97 1015.9
20260831121803 50 163 3.0 8.0 0.00 0.20 0.00 97 1016.0
20260831120903 50 162 2.0 6.0 0.00 0.20 0.00 97 1016.1
20260831120005 50 151 2.0 4.0 0.00 0.20 0.00 97 1015.9
20260831115403 50 149 2.0 4.0 0.00 0.20 0.00 97 1016.4
20260831114503 50 156 1.0 4.0 0.00 0.21 0.00 97 1016.0
20260831113603 50 128 1.0 4.0 0.00 0.21 0.00 97 1016.4
20260831112704 50 134 1.0 3.0 0.00 0.21 0.00 97 1016.1
20260831111803 50 155 2.0 4.0 0.00 0.21 0.00 97 1016.4
20260831110903 50 149 1.0 3.0 0.00 0.21 0.00 97 1016.2
20260831110218 50 134 1.0 3.0 0.00 0.21 0.00 97 1016.2
20260831105403 50 133 1.0 4.0 0.00 0.21 0.00 97 1016.6
20260831104503 50 145 1.0 5.0 0.00 0.21 0.00 97 1016.6
20260831103603 50 130 1.0 6.0 0.00 0.21 0.00 97 1016.4
20260831102703 50 121 2.0 6.0 0.00 0.21 0.00 97 1016.1
20260831102017 50 120 2.0 5.0 0.00 0.21 0.00 97 1016.1
20260831101116 50 118 2.0 6.0 0.00 0.21 0.00 97 1016.5
20260831100003 50 127 1.0 4.0 0.00 0.21 0.00 97 1016.4
20260831095403 50 123 1.0 4.0 0.00 0.21 0.00 97 1016.4
20260831094503 50 127 1.0 4.0 0.00 0.21 0.00 97 1016.6
20260831093603 49 145 0.0 3.0 0.00 0.21 0.00 96 1016.5
20260831092917 49 147 0.0 3.0 0.00 0.21 0.00 96 1016.7